Location: Migliarina
(44.8000°N, 10.8500°E)
Time: 16:42:33
(UTC+00:00)

Daily predictions for brighter satellites

Satellite Brightness Start Highest point End
(mag) Time Altitude Azimuth Time Altitude Azimuth Time Altitude Azimuth
Cosmos 676 Rocket 4.1 19:33:19 10° NNW 19:38:42 82° ENE 19:44:02 10° SSE
Cosmos 1954 Rocket 4.1 19:33:36 10° NNW 19:38:58 85° ENE 19:44:17 10° SSE
Ariane Rocket 3.2 19:35:35 10° S 19:40:40 75° WSW 19:45:48 10° NNW
Okean 2 Rocket 4.3 19:37:16 10° NNW 19:41:34 45° W 19:45:51 10° SSW
BREEZE-M DEB (TANK) 3.8 19:39:20 10° WNW 19:44:32 39° N 19:46:47 10° E
Cosmos 1842 3.9 19:43:31 10° SSW 19:47:24 59° W 19:51:19 10° N
Cosmos 292 Rocket 3.8 19:43:04 10° S 19:47:51 64° ESE 19:52:37 10° NNE
IGS 5A 3.5 19:44:04 10° SSE 19:48:12 75° ENE 19:52:23 10° N
SL-16 R/B 2.2 19:44:20 10° SSW 19:49:56 68° ESE 19:55:35 10° NNE
Cosmos 2360 Rocket 3.0 19:45:28 10° SSE 19:50:21 31° ESE 19:55:16 10° NE
Cosmos 2322 Rocket 2.3 19:46:35 10° S 19:52:07 56° ESE 19:57:42 10° NNE
Genesis I 3.3 19:49:02 10° SW 19:52:52 81° NW 19:56:50 10° NE
Resurs 01 Rocket 1.7 19:50:47 10° SSE 19:55:11 87° WSW 19:59:37 10° NNW
Cosmos 1461 4.1 19:51:58 10° NNW 19:55:48 31° NE 19:59:27 10° ESE
OBJECT-B 3.6 19:54:10 10° SW 19:56:18 16° W 19:58:26 10° NW
USA 81 4.2 19:51:30 10° N 19:56:44 60° E 20:01:55 10° SSE
USA 245 4.4 19:53:07 10° SE 19:57:42 51° ENE 20:03:13 10° N
Cosmos 1975 Rocket 3.6 19:58:28 10° SSE 20:02:32 40° E 20:06:39 10° NNE
Cosmos 1470 3.3 20:01:44 10° NNW 20:05:40 61° W 20:09:32 10° S
Meteor 1-21 4.4 20:01:03 10° SSW 20:06:44 81° W 20:12:23 10° N
SPOT 5 4.0 20:02:18 10° SE 20:06:46 33° ENE 20:11:09 10° N
Cosmos 1674 3.3 20:03:36 10° SSE 20:07:01 36° E 20:10:26 10° NNE
ATLAS CENTAUR R/B 3.4 20:04:27 10° N 20:07:44 21° NE 20:11:08 10° E
COSMOS 2428 4.5 20:06:24 11° SE 20:08:59 14° E 20:11:49 10° ENE
Cosmos 2237 4.3 20:08:04 10° S 20:13:39 59° ESE 20:19:15 10° NNE
Terra 3.1 20:10:29 11° ESE 20:14:12 27° ENE 20:18:09 10° N
Cosmos 2278 Rocket 4.5 20:13:35 10° NNE 20:16:00 13° NE 20:18:27 10° ENE
Cosmos 1726 3.3 20:15:27 10° NNW 20:18:53 40° W 20:22:18 10° SSW
Lacrosse 5 2.4 20:15:49 10° WNW 20:20:43 50° SW 20:24:51 14° SSE
Cosmos 1315 Rocket 3.8 20:17:31 10° NNW 20:21:31 47° W 20:25:27 10° S
Cosmos 1452 Rocket 3.6 20:20:15 10° SSW 20:25:32 83° WNW 20:30:52 10° NNE
Cosmos 1844 Rocket 3.0 20:20:47 10° NNW 20:26:24 59° ENE 20:30:54 16° SE
SL-8 R/B 3.9 20:23:29 10° WNW 20:28:17 74° NNE 20:33:01 10° ESE
Cosmos 2100 Rocket 4.1 20:24:31 10° N 20:30:55 71° E 20:36:23 14° SSE
ARIANE 5 R/B 2.7 20:29:10 16° SSE 20:32:42 72° ENE 20:37:11 10° N
NOSS 3-2 (C) 4.4 20:28:16 10° WSW 20:33:46 50° NW 20:40:10 10° NNE
Cosmos 1340 3.8 20:32:11 19° SE 20:33:54 26° E 20:37:05 10° NE
Cosmos 1850 Rocket 4.1 20:30:40 10° NNW 20:35:59 82° WSW 20:40:12 16° SSE
FALCON 9 DEB 3.0 20:34:16 10° SW 20:37:42 89° NW 20:41:07 10° ENE
ATLAS 3B R/B 3.0 20:31:47 10° S 20:37:45 40° ESE 20:43:53 10° NE
Cosmos 1908 3.2 20:34:29 10° N 20:38:22 73° E 20:40:58 20° SSE
SPOT 1/Viking Rocket 3.9 20:33:46 11° S 20:38:44 63° WSW 20:43:51 10° NNW
Cosmos 2263 Rocket 4.0 20:34:47 10° NW 20:39:23 26° WSW 20:43:57 10° SSW
FALCON 9 DEB 3.8 20:40:01 25° SSE 20:40:32 27° SE 20:43:12 10° ENE
Geosat 4.0 20:37:26 18° SSE 20:41:14 83° ENE 20:46:18 10° NNW
Spot 2 Rocket 3.6 20:40:28 15° S 20:44:41 79° WSW 20:49:48 10° NNW
Cosmos 1544 Rocket 3.7 20:41:06 10° N 20:45:33 62° E 20:48:22 21° SSE
Lacrosse 5 rocket 0.9 20:44:31 10° SW 20:48:10 61° SE 20:51:43 10° NE
ERS-1 Rocket 3.0 20:44:31 19° SSE 20:48:11 77° ENE 20:53:15 10° N
Cosmos 2173 Rocket 4.1 20:42:30 10° N 20:48:55 89° E 20:54:10 16° S
Cosmos 2333 4.4 20:43:45 10° S 20:49:18 52° ESE 20:54:51 10° NE
Cosmos 1331 Rocket 3.9 20:44:08 10° SSW 20:49:20 74° ESE 20:54:37 10° NNE
FALCON 9 DEB 3.6 20:50:01 30° SE 20:50:01 30° SE 20:52:43 10° ENE
Cosmos 1455 Rocket 3.3 20:45:56 10° NNW 20:50:23 71° W 20:53:47 17° S
Cosmos 2016 Rocket 4.1 20:45:58 10° N 20:52:02 64° E 20:56:18 20° SSE
BREEZE-M DEB (TANK) 1.5 20:57:45 10° SW 21:00:09 71° SSE 21:04:44 10° ENE
Cosmos 2333 Rocket 2.4 20:55:53 15° S 21:00:34 53° ESE 21:06:07 10° NE
USA 215 3.7 20:55:39 10° ENE 21:01:41 38° SE 21:07:41 10° SSW
Cosmos 1725 Rocket 4.0 20:58:01 10° N 21:04:12 68° E 21:08:13 23° SSE
Cosmos 1626 2.2 21:04:15 19° SSW 21:06:45 72° W 21:10:27 10° N
Cosmos 1953 3.2 21:03:40 10° NNW 21:07:33 44° W 21:10:22 17° SSW
Cosmos 1302 Rocket 4.1 21:04:49 21° S 21:08:15 55° ESE 21:13:23 10° NNE
SL-14 R/B 3.2 21:08:37 26° S 21:10:49 77° E 21:14:51 10° NNE
Meteor 2-10 Rocket 4.4 21:06:38 10° N 21:11:16 34° ENE 21:13:41 22° ESE
Cosmos 2219 Rocket 2.3 21:07:38 19° S 21:11:38 55° ESE 21:17:11 10° NNE
Cosmos 1844 3.7 21:07:48 10° NNW 21:13:23 75° WSW 21:16:41 25° SSE
Cosmos 1536 Rocket 3.5 21:15:05 27° S 21:17:30 75° E 21:21:58 10° NNE
Cosmos 1802 Rocket 4.2 21:12:48 10° NNW 21:19:03 69° W 21:23:39 19° S
CZ-4B DEB 4.2 21:19:02 44° S 21:19:56 80° WSW 21:23:07 10° NNW
Meteor 1-24 Rocket 3.7 21:21:07 28° SSE 21:23:49 57° E 21:29:10 10° NNE
DNEPR-1 R/B 3.5 21:20:29 10° NNW 21:24:43 76° NE 21:26:37 33° SE
Cosmos 1025 Rocket 3.9 21:22:43 13° SSW 21:26:24 47° WNW 21:30:38 10° N
Cosmos 2237 Rocket 3.4 21:27:21 21° ESE 21:28:22 23° E 21:32:38 10° NE
Cosmos 389 Rocket 3.6 21:26:37 10° N 21:29:40 29° ENE 21:30:14 28° E
Cosmos 2360 Rocket 3.4 21:28:50 10° SW 21:34:11 43° WNW 21:39:34 10° NNE
Cosmos 1461 4.1 21:31:08 10° NW 21:34:48 30° WSW 21:36:05 25° SSW
USA 267 4.2 21:29:18 10° E 21:35:27 46° NNE 21:41:37 10° NW
Cosmos 2228 3.5 21:31:13 10° N 21:35:31 48° ENE 21:36:56 34° SE
Cosmos 2322 Rocket 4.3 21:31:44 10° WSW 21:36:31 27° NW 21:41:20 10° N
Cosmos 1486 Rocket 4.3 21:37:46 10° NNW 21:42:57 59° ENE 21:45:12 32° SE
SPOT 5 4.2 21:41:31 17° SSW 21:44:46 33° W 21:49:16 10° NNW
Cosmos 1455 3.5 21:41:42 10° NNE 21:45:01 27° ENE 21:45:44 25° E
ATLAS CENTAUR R/B 1.6 21:42:38 10° NW 21:46:58 65° WSW 21:48:22 41° S
Cosmos 968 Rocket 3.4 21:46:19 10° NNW 21:51:29 90° SSW 21:53:28 38° SSE
Terra 2.9 21:49:22 22° SSW 21:51:47 37° W 21:56:13 10° NNW
COSMOS 2428 2.7 21:48:21 20° SSW 21:52:24 88° WNW 21:58:12 10° NNE
Cosmos 1300 3.5 21:49:43 10° NNW 21:53:21 43° W 21:54:30 32° SW
Cosmos 2322 4.1 21:48:43 10° SW 21:54:17 61° WNW 21:59:55 10° NNE
FALCON 9 DEB 2.9 21:54:51 59° WSW 21:55:20 80° NNW 21:58:30 10° NE
Cosmos 1992 Rocket 4.1 21:54:03 37° SSE 21:55:54 60° ESE 22:01:04 10° NNE
Uosat 12 SS-18 rocket 4.0 21:54:41 29° SSW 21:56:55 87° ESE 22:01:54 10° NE
ATLAS CENTAUR R/B 3.6 21:59:32 30° SE 22:00:39 32° ESE 22:09:22 10° NE
Cosmos 2278 Rocket 2.5 21:55:47 10° NNW 22:01:23 58° ENE 22:04:01 31° SE
Cosmos 2058 Rocket 3.9 22:02:01 10° N 22:06:13 40° ENE 22:07:18 34° ESE
Cosmos 1844 Rocket 4.4 22:05:33 10° NW 22:09:50 22° W 22:12:33 16° SW
SL-8 R/B 4.2 22:06:12 10° WNW 22:10:39 39° SW 22:10:57 38° SSW
GENESIS II 4.5 22:11:59 49° ESE 22:11:59 49° ESE 22:15:30 10° NE
Cosmos 1346 Rocket 2.9 22:11:16 47° SW 22:12:17 69° W 22:16:19 10° N
Cosmos 967 Rocket 4.5 22:06:27 10° NW 22:12:49 77° WSW 22:15:34 36° SSE
GEOS 3 Rocket 3.6 22:11:18 37° SE 22:13:33 89° WSW 22:18:56 10° NW
Cosmos 1726 Rocket 3.5 22:09:22 10° N 22:13:51 79° E 22:14:53 52° SSE
Cosmos 2233 Rocket 4.4 22:08:12 10° NNW 22:14:11 55° W 22:17:17 28° SSW
FALCON 9 DEB 4.1 22:13:04 10° W 22:16:02 41° NNW 22:19:00 10° NE
NOSS 0 Rocket 3.9 22:16:43 33° SSW 22:19:42 77° ESE 22:25:57 10° NNE
FALCON 9 DEB 3.8 22:18:01 21° W 22:19:48 47° NNW 22:22:51 10° NE
SL-4 R/B 3.0 22:22:18 30° E 22:22:18 30° E 22:24:27 10° ENE
Cosmos 1513 Rocket 4.5 22:18:02 10° N 22:24:08 73° E 22:26:33 38° SSE
FALCON 9 DEB 4.3 22:22:34 10° W 22:25:30 38° NNW 22:28:27 10° NE
Lacrosse 5 rocket 3.5 22:24:29 10° W 22:27:28 23° NNW 22:30:27 10° NNE
Cosmos 1606 Rocket 3.9 22:23:50 10° NNW 22:28:13 57° W 22:29:16 44° SW
ATLAS 3B R/B 3.5 22:22:00 10° WSW 22:28:19 48° NW 22:34:53 10° NNE
Cosmos 1892 Rocket 3.5 22:29:33 55° SSW 22:30:29 87° W 22:34:58 10° N
SJ 16-02 3.5 22:29:00 10° NNE 22:32:04 18° ENE 22:34:22 13° E
ALOS 2 2.6 22:32:40 52° SE 22:33:35 70° ENE 22:37:58 10° N
Cosmos 1980 3.6 22:35:59 38° SSW 22:38:15 86° ESE 22:43:59 10° NNE
Cosmos 1441 Rocket 3.3 22:38:22 58° E 22:38:24 58° E 22:42:11 10° NNE
Cosmos 1703 3.2 22:39:40 63° ESE 22:39:50 64° E 22:43:46 10° NNE
Spot 4 4.1 22:39:08 45° SSW 22:40:19 59° W 22:45:03 10° NNW
Meteor 2-1 Rocket 4.1 22:34:52 10° N 22:40:24 80° E 22:42:13 44° SSE
Cosmos 1943 Rocket 3.8 22:36:14 10° N 22:40:51 26° NE 22:45:00 12° ESE
Cosmos 1503 Rocket 4.0 22:36:57 10° NNW 22:42:20 76° WSW 22:43:52 47° S
USA 215 3.5 22:38:27 10° NE 22:44:57 71° NNW 22:51:27 10° WSW
Cosmos 2333 Rocket 4.0 22:40:13 10° WSW 22:45:07 28° NW 22:50:02 10° N
SAR-Lupe-2 3.9 22:47:11 10° NNE 22:50:27 53° E 22:50:27 53° E
Cosmos 1328 4.0 22:52:30 54° E 22:52:32 54° E 22:56:21 10° NNE
Cosmos 2219 Rocket 4.0 22:51:10 10° WSW 22:55:55 27° NW 23:00:43 10° N
Cosmos 1464 Rocket 4.1 22:53:17 10° NNW 22:59:35 68° W 23:02:03 39° SSW
Cosmos 1626 Rocket 3.6 22:59:58 59° SE 23:00:34 67° E 23:05:00 10° NNE
Cosmos 1867 4.2 22:55:52 10° NW 23:00:57 39° WSW 23:01:49 37° SW
Cosmos 1607 3.9 22:56:27 10° NW 23:02:51 72° WSW 23:05:04 42° SSE
Cosmos 2346 Rocket 4.5 23:00:49 39° SSW 23:03:13 77° W 23:09:25 10° N
Thor Agena Rocket 3.8 22:58:16 10° NNE 23:03:26 56° ESE 23:04:38 45° SSE
COBE Rocket 4.5 23:04:31 40° SW 23:05:42 48° W 23:10:32 10° NNW
Cosmos 1602 Rocket 3.8 23:06:53 52° SE 23:07:29 57° E 23:11:53 10° NNE
SL-16 R/B 2.5 23:06:18 42° SSE 23:07:34 50° ESE 23:13:02 10° NE
PSLV R/B 4.2 23:05:22 10° NNE 23:09:28 41° E 23:09:53 40° ESE
Cosmos 2237 Rocket 2.6 23:09:08 28° SW 23:11:58 57° WNW 23:17:32 10° NNE
MTI 4.5 23:11:43 10° N 23:14:12 48° NNW 23:14:12 48° NNW
Cosmos 1758 Rocket 4.3 23:14:18 38° ESE 23:14:54 40° E 23:19:03 10° NNE
Meteor 1-4 Rocket 2.5 23:13:33 10° N 23:16:45 73° NNW 23:16:45 73° NNW
USA 267 3.1 23:14:47 31° SE 23:18:13 74° SW 23:24:48 10° NW
Cosmos 1816 Rocket 4.4 23:17:16 41° SSW 23:19:33 80° W 23:25:42 10° N
Cosmos 1455 4.0 23:17:31 10° NW 23:20:27 21° W 23:20:36 21° W
Cosmos 2369 Rocket 3.8 23:18:23 10° N 23:23:25 30° NE 23:28:24 10° ESE
NOSS 2-3 (C) 4.1 23:31:45 40° ESE 23:31:45 40° ESE 23:35:58 10° NE
Cosmos 1777 Rocket 4.0 23:26:55 10° NNW 23:32:11 67° WSW 23:33:25 50° SSW
Cosmos-2242 3.5 23:28:06 10° N 23:32:26 53° ENE 23:33:23 44° ESE
Cosmos 2034 Rocket 4.3 23:27:38 10° NNW 23:33:37 52° W 23:35:44 36° SW
Cosmos 1174 4.5 23:35:00 47° SSW 23:36:38 74° ESE 23:41:29 10° NE
Cosmos 1408 3.9 23:37:17 30° E 23:37:22 30° E 23:40:37 10° NNE
Cosmos 2297 3.6 23:38:46 10° NNW 23:44:26 88° WSW 23:46:31 41° SSE
Cosmos 1812 Rocket 3.5 23:40:26 10° NNW 23:44:45 65° W 23:45:17 59° SW
Cosmos 2278 Rocket 3.6 23:40:44 10° NW 23:44:59 22° W 23:45:51 21° WSW
Meteor 1-11 4.2 23:44:20 44° SSW 23:46:11 76° WNW 23:51:47 10° N
Meteor 1-27 4.2 23:42:47 10° N 23:48:23 78° E 23:50:25 41° SSE
Cosmos 724 4.3 23:42:23 10° NW 23:48:34 76° WSW 23:50:57 39° SSE
